Find Starlink 5256

NORAD ID: 54175 Int'l Des: 2022-141 Owner: SPXS Country: US Constellation: starlink operational
LEOCIRCULAR

当前视图

正在加载3D地球...

About Starlink 5256

Starlink 5256 (NORAD 54175) is a starlink constellation satellite (v1.5) launched Oct 28, 2022 by SPXS of US. It operates in LEO, CIRCULAR orbit with a mass of 305.00 kg.

即将过境

Passes for default location (London). Set your location on the main map for personalized predictions.

高度历史

Loading altitude history...

两行轨道根数

1 54175U 22141U 26258.30509603 -.00000141 00000-0 69564-5 0 9993
2 54175 53.1596 218.2054 0001246 95.0285 265.0860 15.34392646214688
Epoch: Sep 15, 2026 • Age: 13 hours

当前状态

高度 468.1 km
远地点 / 近地点 N/A
速度 7.64 km/s
星下点 51.98°N, 24.52°E
发射日期 Oct 28, 2022
运行时间 3.8 years
类型 internet

技术详情

分类 Payload
质量 305.00 kg
干质量 290.00 kg
长度 0.20 m
跨度 9.00 m
形状 ? Box + pan
制造商 SPXS
平台类型 Starlink
阶段状态 In Orbit
所有者/国家 SPXS/US

Most Searched